{"data":{"norad_id":66237,"intl_designator":"2025-245D","name":"STARLINK-35557","alt_names":[],"object_type":"PAYLOAD","status":"ACTIVE","operator":null,"country":"US","launch_date":"2025-10-29","launch_site_code":"AFETR","launch_vehicle":null,"mission":null,"orbit_class":"UNKNOWN","rcs_meters":null,"size_class":null,"mass_kg":null,"dimensions":null,"purposes":["comms"],"wikipedia_slug":null,"has_3d_model":false,"image_url":null,"decayed_at":null,"tle_current":{"epoch":"2026-05-25T02:05:14.049888Z","epoch_age_seconds":78010,"freshness":"FRESH","line1":"1 66237U 25245D   26145.08696817  .00033598  00000+0  10009-2 0  9994","line2":"2 66237  53.1592 287.5948 0002266  81.9326 278.1934 15.34405550 32976","mean_motion":15.3440555,"eccentricity":0.0002266,"inclination_deg":53.1592,"raan_deg":287.5948,"arg_perigee_deg":81.9326,"mean_anomaly_deg":278.1934,"bstar":0.0010009,"rev_number":3297,"period_min":93.847418630622,"perigee_km":461.13661382672,"apogee_km":464.23687514772,"semimajor_km":6840.8237444872,"source":"CELESTRAK","updated_at":"2026-05-25T13:38:21.133747Z"}}}